sat.trackr.live / text

‹ back to catalog

STARLINK-32375

NORAD 61070 · 2024-164W

PAYLOAD ACTIVE UNKNOWN

§ Identity

Operator
Country
US
Launch date
2024-09-13
Launch site
AFWTR
Launch vehicle
Mass (kg)
RCS (m²)

Purposes: comms

External: N2YO · Heavens-Above · Gunter

§ Orbital elements

Epoch: 2026-05-25T03:53:01.363776Z

Period
94.11 min
Inclination
53.1611°
Eccentricity
0.0001318
Mean motion
15.30191800 rev/d
Perigee alt
474.3 km
Apogee alt
476.1 km
Semi-major
6,853.4 km
B*
1.1865e-5
RAAN
96.0617°
Arg perigee
96.2197°
Mean anomaly
263.8954°
Rev number
9,518

§ Raw data

STARLINK-323751 61070U 24164W   26145.16182134 -.00000008  00000+0  11865-4 0  99982 61070  53.1611  96.0617 0001318  96.2197 263.8954 15.30191800 95187

JSON: /api/v1/satellites/61070 · /tle

For live sub-satellite position, see the globe view (requires WebGL).

§ Visibility from observer

Set your observer location to see the next 7 days of passes ≥ 10°. The values pass through the URL so the page stays shareable.

No JS? Fill the form by hand. The geolocation button needs JavaScript.